Location: Aragoneses
(41.0275°N, 4.3847°W)
Time: 14:26:00
(UTC+00:00)

Tiangong - Pass Details

Date: 18 February 2026
Orbit: 382 x 391 km, 41.5° (Epoch: 5 March)

Event Time Altitude Azimuth Distance (km) Brightness Sun altitude
Rises 20:24:42 0° 278° (W) 2,253 3.0 -28.7°
Reaches altitude 10° 20:26:57 10° 266° (W) 1,396 1.6 -29.1°
Enters shadow 20:27:20 12° 262° (W) 1,263 1.3 -29.2°
